THY2XD LTFM-LOWW

Flight info

Callsign THY2XD
Flight time N/A
Altitude 36000
Route TUDBU DCT ETUBA DCT APROB DCT BALUX DCT TORNO DCT NATEX NATEX2W
Aircraft B738/M-SDE2E3FGHIRWXY/LB1

Departure

Time 2026-04-30 21:37
Airport İstanbul Airport (LTFM)

Arrival

Time N/A
Airport Vienna International Airport (LOWW)
Time Latitude Longitude Altitude Speed Heading
2026-04-30 21:25 41.26497 28.74988 333 ft 0 kts 286°
2026-04-30 21:27 41.26497 28.74990 333 ft 2 kts 286°
2026-04-30 21:28 41.26490 28.75057 332 ft 4 kts 261°
2026-04-30 21:28 41.26498 28.75088 328 ft 4 kts 218°
2026-04-30 21:28 41.26511 28.75096 328 ft 0 kts 197°
2026-04-30 21:30 41.26502 28.75093 328 ft 3 kts 197°
2026-04-30 21:31 41.26385 28.75045 332 ft 8 kts 197°
2026-04-30 21:31 41.26281 28.75008 333 ft 7 kts 178°
2026-04-30 21:32 41.26242 28.75117 333 ft 7 kts 89°
2026-04-30 21:32 41.26243 28.75197 333 ft 11 kts 88°
2026-04-30 21:32 41.26246 28.75309 333 ft 14 kts 88°
2026-04-30 21:32 41.26248 28.75440 333 ft 14 kts 89°
2026-04-30 21:33 41.26249 28.75541 333 ft 6 kts 89°
2026-04-30 21:33 41.26258 28.75645 329 ft 6 kts 55°
2026-04-30 21:33 41.26293 28.75666 330 ft 6 kts
2026-04-30 21:34 41.26332 28.75666 332 ft 6 kts 359°
2026-04-30 21:34 41.26340 28.75666 330 ft 0 kts 359°
2026-04-30 21:36 41.26378 28.75664 329 ft 27 kts 357°
2026-04-30 21:36 41.26809 28.75657 331 ft 95 kts 359°
2026-04-30 21:37 41.29705 28.75940 1824 ft 152 kts 27°
2026-04-30 21:37 41.30555 28.76768 2630 ft 158 kts 43°
2026-04-30 21:37 41.31528 28.77633 2986 ft 187 kts 28°
2026-04-30 21:37 41.32719 28.78468 3400 ft 202 kts 29°
2026-04-30 21:38 41.34024 28.79408 3732 ft 220 kts 29°
2026-04-30 21:38 41.35398 28.80405 4352 ft 229 kts 29°
2026-04-30 21:38 41.36813 28.81438 5131 ft 236 kts 29°
2026-04-30 21:38 41.38352 28.82323 5805 ft 246 kts 12°
2026-04-30 21:39 41.40108 28.82461 6376 ft 261 kts 356°
2026-04-30 21:39 41.41936 28.82251 6998 ft 271 kts 352°
2026-04-30 21:39 41.43841 28.81971 7700 ft 279 kts 351°
2026-04-30 21:39 41.45802 28.81687 8400 ft 286 kts 350°
2026-04-30 21:40 41.47801 28.81411 9161 ft 292 kts 350°
2026-04-30 21:40 41.49755 28.81152 9874 ft 297 kts 349°
2026-04-30 21:40 41.51854 28.80883 10426 ft 311 kts 349°
2026-04-30 21:40 41.54063 28.80601 10607 ft 335 kts 350°
2026-04-30 21:41 41.56463 28.80301 10901 ft 354 kts 350°
2026-04-30 21:41 41.58909 28.79798 11495 ft 355 kts 336°
2026-04-30 21:41 41.61022 28.78220 12252 ft 344 kts 313°
2026-04-30 21:41 41.62555 28.75839 13043 ft 335 kts 295°
2026-04-30 21:42 41.63518 28.72998 13776 ft 334 kts 286°
2026-04-30 21:42 41.64338 28.70079 14457 ft 337 kts 286°
2026-04-30 21:42 41.65167 28.67132 15141 ft 339 kts 286°
2026-04-30 21:42 41.66006 28.64213 15800 ft 341 kts 287°
2026-04-30 21:43 41.66825 28.61221 16455 ft 342 kts 281°
2026-04-30 21:43 41.67078 28.59150 16851 ft 340 kts 270°
2026-04-30 21:43 41.67103 28.54903 17745 ft 342 kts 268°
2026-04-30 21:43 41.67111 28.51758 18374 ft 345 kts 268°
2026-04-30 21:44 41.67135 28.48523 18938 ft 348 kts 269°
2026-04-30 21:44 41.67437 28.45285 19476 ft 355 kts 282°
2026-04-30 21:44 41.68330 28.42167 20065 ft 360 kts 289°
2026-04-30 21:44 41.69349 28.39096 20622 ft 363 kts 289°
2026-04-30 21:45 41.70397 28.36002 21139 ft 366 kts 289°
2026-04-30 21:45 41.71447 28.32882 21691 ft 368 kts 289°
2026-04-30 21:45 41.72476 28.29787 22223 ft 370 kts 289°
2026-04-30 21:45 41.73516 28.26626 22759 ft 372 kts 289°
2026-04-30 21:46 41.74560 28.23433 23280 ft 374 kts 288°
2026-04-30 21:46 41.75602 28.20229 23780 ft 376 kts 288°
2026-04-30 21:46 41.76649 28.17008 24212 ft 377 kts 288°
2026-04-30 21:46 41.77687 28.13811 24646 ft 379 kts 288°
2026-04-30 21:47 41.78738 28.10568 25085 ft 380 kts 288°
2026-04-30 21:47 41.79934 28.07392 25490 ft 388 kts 298°
2026-04-30 21:47 41.81544 28.04460 25902 ft 392 kts 301°
2026-04-30 21:47 41.83225 28.01551 26304 ft 395 kts 301°
2026-04-30 21:48 41.84921 27.98622 26681 ft 396 kts 301°
2026-04-30 21:48 41.86582 27.95724 27065 ft 397 kts 300°
2026-04-30 21:48 41.88261 27.92763 27455 ft 398 kts 300°
2026-04-30 21:48 41.89934 27.89793 27852 ft 399 kts 300°
2026-04-30 21:49 41.91615 27.86794 28222 ft 401 kts 300°
2026-04-30 21:49 41.93296 27.83791 28550 ft 402 kts 300°
2026-04-30 21:49 41.94984 27.80773 28899 ft 404 kts 300°
2026-04-30 21:49 41.96660 27.77785 29275 ft 406 kts 301°
2026-04-30 21:50 41.98512 27.74886 29633 ft 412 kts 305°
2026-04-30 21:50 42.00512 27.72110 29965 ft 415 kts 307°
2026-04-30 21:50 42.02576 27.69367 30277 ft 417 kts 307°
2026-04-30 21:50 42.04650 27.66631 30622 ft 416 kts 307°
2026-04-30 21:51 42.06706 27.63900 31037 ft 413 kts 307°
2026-04-30 21:51 42.08733 27.61178 31442 ft 411 kts 306°
2026-04-30 21:51 42.10717 27.58485 31794 ft 409 kts 306°
2026-04-30 21:51 42.12712 27.55757 32142 ft 408 kts 306°
2026-04-30 21:52 42.14697 27.53029 32527 ft 406 kts 306°
2026-04-30 21:52 42.16672 27.50308 32900 ft 404 kts 306°
2026-04-30 21:52 42.17968 27.48520 33130 ft 403 kts 306°
2026-04-30 21:52 42.20572 27.44921 33562 ft 402 kts 306°
2026-04-30 21:53 42.22528 27.42216 33872 ft 401 kts 306°
2026-04-30 21:53 42.24477 27.39518 34175 ft 401 kts 306°
2026-04-30 21:53 42.25768 27.37728 34341 ft 401 kts 306°
2026-04-30 21:53 42.27718 27.35024 34528 ft 402 kts 306°
2026-04-30 21:54 42.29677 27.32304 34655 ft 405 kts 306°
2026-04-30 21:54 42.31651 27.29561 34823 ft 406 kts 307°
2026-04-30 21:54 42.33597 27.26856 35026 ft 406 kts 307°
2026-04-30 21:54 42.35569 27.24113 35216 ft 407 kts 307°
2026-04-30 21:55 42.37551 27.21353 35362 ft 409 kts 307°
2026-04-30 21:55 42.39185 27.19076 35511 ft 409 kts 307°
2026-04-30 21:55 42.41144 27.16344 35703 ft 410 kts 308°
2026-04-30 21:55 42.43139 27.13558 35874 ft 411 kts 308°
2026-04-30 21:56 42.45130 27.10776 36030 ft 412 kts 308°
2026-04-30 21:56 42.47127 27.07982 36202 ft 412 kts 308°
2026-04-30 21:56 42.51141 27.02357 36254 ft 416 kts 308°
2026-04-30 21:57 42.55136 26.96752 36247 ft 412 kts 308°
2026-04-30 21:57 42.59087 26.91197 36259 ft 410 kts 308°
2026-04-30 21:58 42.63035 26.85634 36255 ft 408 kts 308°
2026-04-30 21:58 42.66973 26.80072 36262 ft 408 kts 308°
2026-04-30 21:59 42.70887 26.74532 36267 ft 408 kts 308°
2026-04-30 22:00 42.76807 26.66134 36274 ft 410 kts 308°
2026-04-30 22:00 42.82742 26.57728 36284 ft 414 kts 309°
2026-04-30 22:01 42.86867 26.52196 36281 ft 416 kts 310°
2026-04-30 22:01 42.90996 26.46719 36288 ft 418 kts 310°
2026-04-30 22:02 42.95165 26.41150 36292 ft 419 kts 310°
2026-04-30 22:02 42.99309 26.35581 36296 ft 420 kts 310°
2026-04-30 22:03 43.03462 26.29984 36301 ft 417 kts 310°
2026-04-30 22:03 43.07532 26.24484 36306 ft 414 kts 310°
2026-04-30 22:04 43.11629 26.18936 36315 ft 411 kts 310°
2026-04-30 22:05 43.17714 26.10672 36337 ft 414 kts 310°
2026-04-30 22:05 43.21849 26.05038 36341 ft 422 kts 310°
2026-04-30 22:06 43.25972 25.99416 36338 ft 424 kts 310°
2026-04-30 22:06 43.32267 25.90813 36330 ft 426 kts 311°
2026-04-30 22:07 43.36440 25.85095 36334 ft 425 kts 311°
2026-04-30 22:07 43.40615 25.79361 36326 ft 423 kts 311°
2026-04-30 22:08 43.44779 25.73632 36334 ft 421 kts 311°
2026-04-30 22:08 43.48889 25.67964 36330 ft 419 kts 311°
2026-04-30 22:09 43.53004 25.62276 36340 ft 417 kts 311°
2026-04-30 22:09 43.57099 25.56604 36330 ft 416 kts 311°
2026-04-30 22:10 43.61155 25.50976 36340 ft 415 kts 311°
2026-04-30 22:10 43.65235 25.45303 36338 ft 415 kts 311°
2026-04-30 22:11 43.71305 25.36839 36346 ft 415 kts 311°
2026-04-30 22:12 43.75379 25.31144 36351 ft 416 kts 311°
2026-04-30 22:12 43.79433 25.25467 36351 ft 417 kts 311°
2026-04-30 22:13 43.83520 25.19730 36352 ft 418 kts 311°
2026-04-30 22:13 43.87620 25.13964 36358 ft 419 kts 311°
2026-04-30 22:14 43.91702 25.08212 36358 ft 420 kts 311°
2026-04-30 22:14 43.95813 25.02407 36357 ft 421 kts 311°
2026-04-30 22:15 43.99813 24.96514 36360 ft 420 kts 309°
2026-04-30 22:15 44.03633 24.90448 36358 ft 419 kts 308°
2026-04-30 22:16 44.07464 24.84312 36360 ft 419 kts 308°
2026-04-30 22:17 44.15102 24.72148 36365 ft 417 kts 308°
2026-04-30 22:17 44.20835 24.63020 36363 ft 415 kts 308°
2026-04-30 22:18 44.26516 24.53946 36369 ft 414 kts 308°
2026-04-30 22:19 44.32176 24.44875 36371 ft 413 kts 308°
2026-04-30 22:20 44.37814 24.35810 36378 ft 413 kts 308°
2026-04-30 22:20 44.43447 24.26726 36375 ft 413 kts 308°
2026-04-30 22:21 44.47217 24.20630 36376 ft 413 kts 308°
2026-04-30 22:21 44.50979 24.14533 36374 ft 413 kts 308°
2026-04-30 22:22 44.54657 24.08560 36380 ft 413 kts 308°
2026-04-30 22:22 44.58419 24.02436 36373 ft 414 kts 308°
2026-04-30 22:23 44.62182 23.96299 36377 ft 415 kts 308°
2026-04-30 22:23 44.65940 23.90157 36375 ft 415 kts 308°
2026-04-30 22:24 44.69680 23.84029 36380 ft 415 kts 308°
2026-04-30 22:24 44.73449 23.77841 36373 ft 415 kts 308°
2026-04-30 22:25 44.77138 23.71773 36377 ft 415 kts 308°
2026-04-30 22:25 44.80895 23.65578 36374 ft 414 kts 308°
2026-04-30 22:26 44.86507 23.56299 36378 ft 414 kts 308°
2026-04-30 22:27 44.90214 23.50154 36376 ft 413 kts 308°
2026-04-30 22:27 44.95796 23.40873 36378 ft 412 kts 308°
2026-04-30 22:28 45.01344 23.31619 36376 ft 412 kts 308°
2026-04-30 22:29 45.08722 23.19267 36378 ft 411 kts 308°
2026-04-30 22:31 45.21603 22.97568 36372 ft 412 kts 308°
2026-04-30 22:32 45.30817 22.81944 36373 ft 413 kts 308°
2026-04-30 22:33 45.40016 22.66259 36374 ft 413 kts 308°
2026-04-30 22:35 45.49216 22.50483 36363 ft 415 kts 308°
2026-04-30 22:36 45.58404 22.34638 36357 ft 414 kts 308°
2026-04-30 22:37 45.65716 22.21965 36356 ft 414 kts 308°
2026-04-30 22:38 45.72997 22.09289 36348 ft 412 kts 308°
2026-04-30 22:39 45.78454 21.99750 36345 ft 411 kts 308°
2026-04-30 22:40 45.89257 21.80768 36328 ft 410 kts 307°
2026-04-30 22:41 45.97669 21.65899 36338 ft 410 kts 307°
2026-04-30 22:43 46.08438 21.46747 36348 ft 411 kts 307°
2026-04-30 22:44 46.15609 21.33920 36346 ft 411 kts 307°
2026-04-30 22:45 46.26357 21.14584 36344 ft 412 kts 307°
2026-04-30 22:47 46.37100 20.95122 36341 ft 413 kts 307°
2026-04-30 22:48 46.44249 20.82094 36357 ft 413 kts 307°
2026-04-30 22:49 46.54955 20.62469 36351 ft 414 kts 307°
2026-04-30 22:51 46.65645 20.42735 36370 ft 415 kts 307°
2026-04-30 22:52 46.70999 20.32798 36378 ft 415 kts 307°
2026-04-30 22:53 46.78075 20.19611 36374 ft 414 kts 307°
2026-04-30 22:53 46.83375 20.09692 36376 ft 413 kts 307°
2026-04-30 22:55 46.92237 19.93026 36380 ft 414 kts 307°
2026-04-30 22:55 46.95722 19.86446 36358 ft 401 kts 307°
2026-04-30 22:56 46.99065 19.80118 36372 ft 394 kts 307°
2026-04-30 22:56 47.04087 19.70582 36089 ft 399 kts 307°
2026-04-30 22:57 47.07448 19.64184 35606 ft 389 kts 306°
2026-04-30 22:57 47.10711 19.57959 35145 ft 382 kts 306°
2026-04-30 22:58 47.13410 19.52797 34759 ft 382 kts 306°
2026-04-30 22:59 47.17934 19.44122 34065 ft 374 kts 306°
2026-04-30 22:59 47.22609 19.35132 33259 ft 366 kts 306°